Regional Weather Roundup
Issued by NWS

Home | Current Version | Previous Version | Text Only | Print | Product List | Glossary Off
Versions: 1 2 3 4 5 6 7 8 9 10 11 12 13 14 15 16 17 18 19 20 21 22 23 24 25 26 27 28 29 30 31 32 33 34 35 36 37 38 39 40 41 42 43 44 45 46 47 48 49 50

000
ASUS45 KCYS 012210
RWRWY

WYOMING REGIONAL WEATHER ROUNDUP
NATIONAL WEATHER SERVICE CHEYENNE WY
300 PM MST SUN MAR 01 2015

NOTE:  "FAIR" INDICATES FEW OR NO CLOUDS BELOW 12,000 FEET
WITH NO SIGNIFICANT WEATHER AND/OR OBSTRUCTIONS TO VISIBILITY.

WYZ001-012300-
YELLOWSTONE NATIONAL PARK

CITY           SKY/WX    TMP DP  RH WIND       PRES   REMARKS
LK YELLOWSTONE   N/A     19  -6  33 CALM      30.05F
W YELLOWSTONE  NOT AVBL

$$
WYZ002>013-054>058-071-098>099-012300-
NORTHERN WYOMING

CITY           SKY/WX    TMP DP  RH WIND       PRES   REMARKS
JACKSON        SUNNY     21  10  63 CALM      30.07F
CODY           FAIR      27  12  54 SE12      30.13F WCI  16
GREYBULL       FAIR      31   2  29 VRB5      30.21F WCI  26
WORLAND        FAIR      29   8  41 SE7       30.20F WCI  22
SHERIDAN       FAIR      25   4  40 W5        30.22F WCI  19
BUFFALO        FAIR      24  10  55 E7        30.18F WCI  16
GILLETTE       FAIR      26   4  38 NW9       30.20F WCI  17
HULETT         FAIR      25   9  50 W7        30.23F WCI  17
NEWCASTLE      FAIR      27   5  39 N16       30.24S WCI  14

$$
WYZ014>020-022>026-101>103-012300-
CENTRAL WYOMING

CITY           SKY/WX    TMP DP  RH WIND       PRES   REMARKS
BIG PINEY      FAIR      30  13  49 SE7       30.07F WCI  23
PINEDALE       FAIR      23  14  68 NW7       30.08F WCI  15
DUBOIS         FAIR      23  10  58 S7        30.03F WCI  15
LANDER         PTSUNNY   23  10  57 CALM      30.14F
RIVERTON       FAIR      23   9  55 SE7       30.15F WCI  15
CASPER         FAIR      30   7  37 W3        30.15S
DOUGLAS        FAIR      28  10  46 VRB3      30.20S

$$
WYZ021-027>030-104>119-012300-
SOUTHERN WYOMING

CITY           SKY/WX    TMP DP  RH WIND       PRES   REMARKS
EVANSTON       FAIR      29  18  63 E9        30.03F WCI  20
KEMMERER       FAIR      32  14  47 SE6       30.04F WCI  26
FORT BRIDGER   FAIR      28  20  72 SE10      30.09S WCI  19
ROCK SPRINGS   FAIR      29  15  56 SE8       30.07F WCI  21
DIXON          FAIR      35  22  58 W5        30.11S WCI  31
RAWLINS        FAIR      31  15  52 CALM      30.09S
SARATOGA       FAIR      30  21  69 CALM      30.09F
LARAMIE        PTSUNNY   20  13  74 CALM      30.09S
CHEYENNE       CLOUDY    25  13  60 CALM      30.16R
TORRINGTON     FAIR      33   7  33 VRB5      30.23S WCI  29
PINE BLUFFS    CLOUDY    27  14  59 CALM      30.22S

$$


USA.gov is the U.S. government's official web portal to all federal, state and local government web resources and services.